23 de maio de 2022

Tempo Código Clima Temp. Visão Nuvens Vento METAR/SPECI
09:20
V
17 °C 10 km+ - 130°   130° 11 kt METAR EDDH 230720Z AUTO 13011KT 090V160 CAVOK 17/08 Q1008 NOSIG
08:50
V
16 °C 10 km+ - 120°   120° 12 kt METAR EDDH 230650Z AUTO 12012KT CAVOK 16/08 Q1008 NOSIG
08:20
V
15 °C 10 km+ - 120°   120° 12 kt METAR EDDH 230620Z AUTO 12012KT CAVOK 15/08 Q1009 NOSIG
07:50
V
14 °C 10 km+ - 120°   120° 10 kt METAR EDDH 230550Z AUTO 12010KT CAVOK 14/07 Q1009 NOSIG
07:20
V
14 °C 10 km+ - 110°   110° 8 kt METAR EDDH 230520Z AUTO 11008KT CAVOK 14/08 Q1009 NOSIG
06:50
V
12 °C 10 km+ - 120°   120° 7 kt METAR EDDH 230450Z AUTO 12007KT CAVOK 12/08 Q1010 NOSIG
06:20
V
11 °C 10 km+ - 110°   110° 9 kt METAR EDDH 230420Z AUTO 11009KT CAVOK 11/08 Q1010 NOSIG
05:50
V
11 °C 10 km+ - 110°   110° 7 kt METAR EDDH 230350Z AUTO 11007KT CAVOK 11/08 Q1010 NOSIG
05:20
V
10 °C 10 km+ - 110°   110° 5 kt METAR EDDH 230320Z AUTO 11005KT 080V140 CAVOK 10/08 Q1010 NOSIG
04:50
V
11 °C 10 km+ - 120°   120° 5 kt METAR EDDH 230250Z AUTO 12005KT CAVOK 11/08 Q1011 NOSIG
04:20
V
11 °C 10 km+ - 120°   120° 6 kt METAR EDDH 230220Z AUTO 12006KT CAVOK 11/08 Q1011 NOSIG
03:50
V
11 °C 10 km+ - 120°   120° 6 kt METAR EDDH 230150Z AUTO 12006KT CAVOK 11/09 Q1011 NOSIG
03:20
V
11 °C 10 km+ - 120°   120° 4 kt METAR EDDH 230120Z AUTO 12004KT CAVOK 11/08 Q1012 NOSIG
02:50
V
11 °C 10 km+ - 130°   130° 4 kt METAR EDDH 230050Z AUTO 13004KT CAVOK 11/08 Q1012 NOSIG
02:20
V
12 °C 10 km+ - 110°   110° 7 kt METAR EDDH 230020Z AUTO 11007KT CAVOK 12/09 Q1012 NOSIG
01:50
V
12 °C 10 km+ - 090°   090° 6 kt METAR EDDH 222350Z AUTO 09006KT CAVOK 12/09 Q1012 NOSIG
01:20
V
12 °C 10 km+ - 090°   090° 5 kt METAR EDDH 222320Z AUTO 09005KT CAVOK 12/09 Q1013 NOSIG
00:50
V
12 °C 10 km+ - 090°   090° 5 kt METAR EDDH 222250Z AUTO 09005KT CAVOK 12/09 Q1013 NOSIG
00:20
V
13 °C 10 km+ - 100°   100° 6 kt METAR EDDH 222220Z AUTO 10006KT CAVOK 13/10 Q1013 NOSIG

22 de maio de 2022

Tempo Código Clima Temp. Visão Nuvens Vento METAR/SPECI
23:50
V
13 °C 10 km+ - 090°   090° 5 kt METAR EDDH 222150Z AUTO 09005KT CAVOK 13/10 Q1013 NOSIG
23:20
V
13 °C 10 km+ - 080°   080° 4 kt METAR EDDH 222120Z AUTO 08004KT CAVOK 13/10 Q1013 NOSIG
22:50
V
13 °C 10 km+ - 090°   090° 4 kt METAR EDDH 222050Z AUTO 09004KT CAVOK 13/09 Q1013 NOSIG
22:20
V
13 °C 10 km+ - 040°   040° 2 kt METAR EDDH 222020Z AUTO 04002KT CAVOK 13/09 Q1014 NOSIG
21:50
V
14 °C 10 km+ - 010°   010° 3 kt METAR EDDH 221950Z AUTO 01003KT CAVOK 14/08 Q1014 NOSIG
21:20
V
15 °C 10 km+ - 320°   320° 4 kt METAR EDDH 221920Z AUTO 32004KT 300V360 CAVOK 15/07 Q1014 NOSIG
20:50
V
16 °C 10 km+ - 340°   340° 5 kt METAR EDDH 221850Z AUTO 34005KT 9999 FEW042 SCT049 16/08 Q1014 NOSIG
20:20
V
17 °C 10 km+ 4.600 ft 300°   300° 5 kt METAR EDDH 221820Z AUTO 30005KT 9999 BKN046 17/07 Q1014 NOSIG
19:50
V
18 °C 10 km+ 4.600 ft 060°   060° 3 kt METAR EDDH 221750Z AUTO 06003KT 040V100 9999 BKN046 18/08 Q1014 NOSIG
19:20
V
18 °C 10 km+ - 360°   360° 4 kt METAR EDDH 221720Z AUTO 36004KT 310V110 CAVOK 18/08 Q1014 NOSIG
18:50
V
18 °C 10 km+ - 330°   330° 4 kt METAR EDDH 221650Z AUTO 33004KT 290V350 CAVOK 18/07 Q1014 NOSIG
18:20
V
18 °C 10 km+ - 330°   330° 6 kt METAR EDDH 221620Z AUTO 33006KT 280V360 9999 FEW048 18/08 Q1014 NOSIG
17:50
V
19 °C 10 km+ - 340°   340° 8 kt METAR EDDH 221550Z AUTO 34008KT 300V030 CAVOK 19/09 Q1014 NOSIG
17:20
V
19 °C 10 km+ - 330°   330° 6 kt METAR EDDH 221520Z AUTO 33006KT 270V020 CAVOK 19/07 Q1014 NOSIG
16:50
V
19 °C 10 km+ - 330°   330° 6 kt METAR EDDH 221450Z AUTO 33006KT 290V020 CAVOK 19/06 Q1015 NOSIG
16:20
V
19 °C 10 km+ - 300°   300° 8 kt METAR EDDH 221420Z AUTO 30008KT 250V350 CAVOK 19/07 Q1015 NOSIG
15:50
V
19 °C 10 km+ - 240°   240° 6 kt METAR EDDH 221350Z AUTO 24006KT 190V290 CAVOK 19/06 Q1015 NOSIG
15:20
V
17 °C 10 km+ - 290°   290° 6 kt METAR EDDH 221320Z AUTO 29006KT 210V320 9999 SCT049 17/07 Q1015
14:50
V
17 °C 10 km+ - 300°   300° 9 kt METAR EDDH 221250Z AUTO 30009KT 9999 FEW047 17/08 Q1016 NOSIG
14:20
V
18 °C 10 km+ - 250°   250° 7 kt METAR EDDH 221220Z AUTO 25007KT 210V280 9999 FEW042 18/07 Q1016 NOSIG
13:50
V
18 °C 10 km+ - 320°   320° 9 kt METAR EDDH 221150Z AUTO 32009KT 9999 FEW042 18/08 Q1016 NOSIG
13:20
V
17 °C 10 km+ - 300°   300° 8 kt METAR EDDH 221120Z AUTO 30008KT 260V350 9999 FEW040 SCT049 17/08 Q1016 NOSIG
12:50
V
17 °C 10 km+ - 300°   300° 7 kt METAR EDDH 221050Z AUTO 30007KT 200V340 9999 SCT038 SCT049 17/08 Q1016 NOSIG
12:20
V
17 °C 10 km+ - 310°   310° 4 kt METAR EDDH 221020Z AUTO 31004KT 240V050 9999 SCT037 17/08 Q1017 NOSIG
11:50
V
16 °C 10 km+ - 300°   300° 6 kt METAR EDDH 220950Z AUTO 30006KT 9999 FEW032 SCT048 16/08 Q1017 NOSIG
11:20
V
16 °C 10 km+ 4.600 ft 280°   280° 6 kt METAR EDDH 220920Z AUTO 28006KT 240V340 9999 FEW027 BKN046 16/09 Q1017 NOSIG
10:50
V
15 °C 10 km+ - 210°   210° 4 kt METAR EDDH 220850Z AUTO 21004KT 180V270 9999 FEW020 SCT039 15/09 Q1017 NOSIG
10:20
V
13 °C 10 km+ 4.000 ft 280°   280° 5 kt METAR EDDH 220820Z AUTO 28005KT 240V320 9999 FEW019 SCT029 BKN040 13/09 Q1017 NOSIG
09:50
V
13 °C 10 km+ 3.900 ft 280°   280° 6 kt METAR EDDH 220750Z AUTO 28006KT 250V350 9999 SCT017 BKN039 13/09 Q1017 NOSIG
09:20
V
13 °C 10 km+ 3.100 ft 260°   260° 5 kt METAR EDDH 220720Z AUTO 26005KT 230V310 9999 SCT013 BKN031 13/09 Q1017 NOSIG
08:50
V
12 °C 10 km+ 3.000 ft 270°   270° 5 kt METAR EDDH 220650Z AUTO 27005KT 230V300 9999 SCT012 SCT022 OVC030 12/10 Q1017 NOSIG
08:20
M
12 °C 10 km+ 2.600 ft 270°   270° 4 kt METAR EDDH 220620Z AUTO 27004KT 230V290 9999 FEW010 OVC026 12/09 Q1017 NOSIG
07:50
M
12 °C 10 km+ 2.500 ft 250°   250° 4 kt METAR EDDH 220550Z AUTO 25004KT 210V300 9999 FEW010 OVC025 12/09 Q1017 NOSIG
07:20
M
11 °C 10 km+ 2.500 ft 280°   280° 6 kt METAR EDDH 220520Z AUTO 28006KT 9999 OVC025 11/09 Q1017 NOSIG
06:50
M
11 °C 10 km+ 2.500 ft 280°   280° 4 kt METAR EDDH 220450Z AUTO 28004KT 250V310 9999 FEW018 OVC025 11/09 Q1017 NOSIG
06:20
M
10 °C 10 km+ 2.300 ft Var   Var 2 kt METAR EDDH 220420Z AUTO VRB02KT 9999 SCT017 BKN023 10/09 Q1017 NOSIG
05:50
V
10 °C 10 km+ - 250°   250° 3 kt METAR EDDH 220350Z AUTO 25003KT 220V290 9999 FEW016 SCT023 10/09 Q1017 TEMPO BKN014
05:20
M
10 °C 10 km+ 1.500 ft 250°   250° 3 kt METAR EDDH 220320Z AUTO 25003KT 9999 BKN015 BKN022 10/09 Q1017 TEMPO BKN014
04:50
M
10 °C 10 km+ 2.300 ft 260°   260° 4 kt METAR EDDH 220250Z AUTO 26004KT 9999 SCT016 BKN023 10/09 Q1017 NOSIG
04:20
M
10 °C 10 km+ 2.000 ft 250°   250° 5 kt METAR EDDH 220220Z AUTO 25005KT 9999 BKN020 10/09 Q1017 NOSIG
03:50
V
10 °C 10 km+ - 240°   240° 4 kt METAR EDDH 220150Z AUTO 24004KT 9999 SCT019 10/08 Q1017 NOSIG
03:20
V
10 °C 10 km+ - 250°   250° 4 kt METAR EDDH 220120Z AUTO 25004KT CAVOK 10/09 Q1017 NOSIG
02:50
V
11 °C 10 km+ - 280°   280° 3 kt METAR EDDH 220050Z AUTO 28003KT 240V300 CAVOK 11/09 Q1017 NOSIG
02:20
V
11 °C 10 km+ - 280°   280° 5 kt METAR EDDH 220020Z AUTO 28005KT CAVOK 11/09 Q1017 NOSIG
01:50
V
11 °C 10 km+ - 280°   280° 6 kt METAR EDDH 212350Z AUTO 28006KT CAVOK 11/09 Q1017 NOSIG
01:20
V
11 °C 10 km+ - 280°   280° 8 kt METAR EDDH 212320Z AUTO 28008KT 250V310 CAVOK 11/09 Q1018 NOSIG
00:50
V
11 °C 10 km+ - 270°   270° 7 kt METAR EDDH 212250Z AUTO 27007KT 230V290 CAVOK 11/09 Q1018 NOSIG
00:20
V
11 °C 10 km+ - 280°   280° 8 kt METAR EDDH 212220Z AUTO 28008KT CAVOK 11/09 Q1018 NOSIG

21 de maio de 2022

Tempo Código Clima Temp. Visão Nuvens Vento METAR/SPECI
23:50
V
11 °C 10 km+ - 270°   270° 7 kt METAR EDDH 212150Z AUTO 27007KT CAVOK 11/09 Q1018 NOSIG
23:20
V
12 °C 10 km+ - 270°   270° 7 kt METAR EDDH 212120Z AUTO 27007KT CAVOK 12/09 Q1018 NOSIG
22:50
V
12 °C 10 km+ - 280°   280° 8 kt METAR EDDH 212050Z AUTO 28008KT 240V300 9999 FEW022 12/09 Q1018 NOSIG
22:20
V
12 °C 10 km+ - 290°   290° 8 kt METAR EDDH 212020Z AUTO 29008KT 9999 SCT021 12/09 Q1018 NOSIG
21:50
V
12 °C 10 km+ - 290°   290° 7 kt METAR EDDH 211950Z AUTO 29007KT 9999 SCT020 SCT027 12/09 Q1018 NOSIG
21:20
M
13 °C 10 km+ 2.300 ft 290°   290° 9 kt METAR EDDH 211920Z AUTO 29009KT 260V320 9999 BKN023 BKN028 13/09 Q1018 NOSIG
20:50
V
13 °C 10 km+ - 290°   290° 12 kt METAR EDDH 211850Z AUTO 29012KT 9999 FEW022 13/08 Q1018 NOSIG
20:20
V
14 °C 10 km+ - 300°   300° 14 kt METAR EDDH 211820Z AUTO 30014KT 9999 FEW024 14/08 Q1018 BECMG 29009KT
19:50
V
14 °C 10 km+ - 300°   300° 14 kt METAR EDDH 211750Z AUTO 30014KT 270V330 9999 FEW024 14/09 Q1018 NOSIG
19:20
V
14 °C 10 km+ - 300°   300° 14 kt METAR EDDH 211720Z AUTO 30014KT 9999 FEW026 SCT033 14/09 Q1018 NOSIG
18:50
V
15 °C 10 km+ - 290°   290° 14 kt METAR EDDH 211650Z AUTO 29014KT 260V330 9999 SCT027 SCT034 15/09 Q1018 TEMPO 29015G25KT
18:20
V
15 °C 10 km+ - 300°   300° 19 kt METAR EDDH 211620Z AUTO 30019KT 9999 SCT028 15/08 Q1018 TEMPO 29020G30KT
17:50
V
15 °C 10 km+ - 300°   300° 17 kt METAR EDDH 211550Z AUTO 30017KT 9999 SCT027 SCT034 15/09 Q1018 TEMPO 30020G30KT
17:20
V
15 °C 10 km+ 3.300 ft 300°   300° 17 kt METAR EDDH 211520Z AUTO 30017KT 9999 SCT027 BKN033 BKN043 15/09 Q1018 TEMPO 30020G30KT
16:50
V
15 °C 10 km+ 4.300 ft 300°   300° 18 kt METAR EDDH 211450Z AUTO 30018KT 9999 SCT032 BKN043 15/09 Q1017 TEMPO 30020G30KT
16:20
V
16 °C 10 km+ 4.400 ft 290°   290° 18 28 kt METAR EDDH 211420Z AUTO 29018G28KT 9999 FEW028 SCT035 BKN044 16/08 Q1017 NOSIG
15:50
V
17 °C 10 km+ 4.400 ft 290°   290° 19 kt METAR EDDH 211350Z AUTO 29019KT 260V330 9999 SCT034 BKN044 17/08 Q1017 TEMPO 29020G30KT
15:20
V
16 °C 10 km+ - 290°   290° 18 29 kt METAR EDDH 211320Z AUTO 29018G29KT 260V320 9999 SCT034 SCT041 16/08 Q1017 NOSIG
14:50
V
16 °C 10 km+ - 290°   290° 19 kt METAR EDDH 211250Z AUTO 29019KT 9999 FEW033 SCT040 16/08 Q1017 TEMPO 29020G30KT
14:20
V
16 °C 10 km+ 4.100 ft 290°   290° 18 28 kt METAR EDDH 211220Z AUTO 29018G28KT 9999 SCT031 BKN041 16/08 Q1017 NOSIG
13:50
V
16 °C 10 km+ 4.300 ft 290°   290° 20 kt METAR EDDH 211150Z AUTO 29020KT 250V310 9999 SCT029 BKN043 16/09 Q1016 TEMPO 29020G30KT
13:20
V
17 °C 10 km+ - 280°   280° 21 32 kt METAR EDDH 211120Z AUTO 28021G32KT 250V310 9999 SCT027 SCT035 17/09 Q1016 NOSIG
12:50
V
16 °C 10 km+ 3.900 ft 280°   280° 15 kt METAR EDDH 211050Z AUTO 28015KT 250V310 9999 SCT022 BKN039 16/11 Q1016 NOSIG
12:20
V
15 °C 10 km+ 4.100 ft 280°   280° 18 29 kt METAR EDDH 211020Z AUTO 28018G29KT 9999 -SHRA SCT020 BKN041 FEW///TCU 15/10 Q1015 NOSIG
11:50
V
14 °C 10 km+ 3.200 ft 270°   270° 15 kt METAR EDDH 210950Z AUTO 27015KT 240V300 9999 SCT015 BKN032 BKN044 14/12 Q1015 TEMPO 27020G30KT
11:20
M
14 °C 10 km+ 1.400 ft 270°   270° 17 28 kt METAR EDDH 210920Z AUTO 27017G28KT 240V300 9999 -SHRA BKN014 BKN020 FEW///TCU 14/12 Q1015 RESHRA TEMPO 27020G30KT
10:50
V
14 °C 10 km+ 3.800 ft 250°   250° 11 kt METAR EDDH 210850Z AUTO 25011KT 230V290 9999 VCSH SCT014 BKN038 FEW///TCU 14/12 Q1014 RESHRA TEMPO 26015G25KT SHRA BKN012 BKN015CB
10:20
M
13 °C 6 km 3.500 ft 240°   240° 14 24 kt METAR EDDH 210820Z AUTO 24014G24KT 220V280 6000 SHRA FEW006 BKN035 FEW///CB 13/11 Q1014 TEMPO NSW BKN012 BKN015CB
09:50
M
14 °C 10 km+ 1.500 ft 250°   250° 11 kt METAR EDDH 210750Z AUTO 25011KT 9999 BKN015 BKN025 BKN038 14/11 Q1014 TEMPO 26015G25KT SHRA BKN009 BKN015CB
09:20
M
13 °C 10 km+ 1.800 ft 240°   240° 15 kt METAR EDDH 210720Z AUTO 24015KT 9999 -SHRA SCT012 BKN018 FEW///TCU 13/11 Q1014 TEMPO 26015G25KT SHRA BKN009 BKN015CB
Dados mais antigos

Baixe nosso aplicativo

Fácil acesso a todas as condições meteorológicas da aviação no seu celular e no seu tablet.
Com muitos recursos não disponíveis no site, como suporte offline e uma lista pessoal de aeroportos.

Nós e terceiros acompanhamos seu comportamento na internet em nosso site com cookies. Se você continuar, nós assumimos que você concorda com nossa política de cookies. Saiba mais